UAL617 KORD-KMCO

Flight info

Callsign UAL617
Flight time N/A
Altitude 39000
Route DENNT DARCY DREGS DUMGE SCOTO SWAPP Q79 THRSR ZJAYX GRNCH5
Aircraft B789/H-SDE1E2E3FGHIJ2J3J4J5M1RWXY/LB1D1

Departure

Time 2026-04-30 22:42
Airport Chicago O'Hare International Airport (KORD)

Arrival

Time N/A
Airport Orlando International Airport (KMCO)
Time Latitude Longitude Altitude Speed Heading
2026-04-30 22:14 41.97922 -87.90946 673 ft 0 kts 279°
2026-04-30 22:23 41.97921 -87.90938 673 ft 2 kts 285°
2026-04-30 22:24 41.97917 -87.90919 673 ft 2 kts 285°
2026-04-30 22:24 41.97912 -87.90900 673 ft 2 kts 296°
2026-04-30 22:24 41.97904 -87.90882 673 ft 2 kts 307°
2026-04-30 22:24 41.97894 -87.90867 673 ft 2 kts 317°
2026-04-30 22:25 41.97882 -87.90855 673 ft 2 kts 328°
2026-04-30 22:25 41.97869 -87.90845 673 ft 2 kts 338°
2026-04-30 22:25 41.97855 -87.90840 673 ft 2 kts 349°
2026-04-30 22:25 41.97840 -87.90837 673 ft 2 kts 359°
2026-04-30 22:26 41.97825 -87.90839 673 ft 0 kts
2026-04-30 22:30 41.97896 -87.90823 673 ft 11 kts
2026-04-30 22:31 41.98129 -87.90783 673 ft 10 kts 358°
2026-04-30 22:32 41.98274 -87.90836 673 ft 6 kts 305°
2026-04-30 22:32 41.98288 -87.91026 673 ft 18 kts 270°
2026-04-30 22:33 41.98287 -87.91467 673 ft 13 kts 270°
2026-04-30 22:33 41.98285 -87.91709 673 ft 16 kts 269°
2026-04-30 22:34 41.98278 -87.92257 673 ft 21 kts 270°
2026-04-30 22:35 41.98278 -87.92622 673 ft 17 kts 270°
2026-04-30 22:36 41.98276 -87.93074 673 ft 0 kts 272°
2026-04-30 22:37 41.98277 -87.93085 673 ft 3 kts 273°
2026-04-30 22:37 41.98290 -87.93129 673 ft 4 kts 319°
2026-04-30 22:38 41.98359 -87.93146 673 ft 6 kts 359°
2026-04-30 22:38 41.98387 -87.93126 673 ft 3 kts 84°
2026-04-30 22:39 41.98387 -87.93122 673 ft 0 kts 89°
2026-04-30 22:41 41.98387 -87.93021 671 ft 42 kts 90°
2026-04-30 22:41 41.98393 -87.90759 703 ft 186 kts 89°
2026-04-30 22:42 41.97522 -87.84683 4233 ft 185 kts 138°
2026-04-30 22:43 41.95621 -87.81862 5619 ft 227 kts 124°
2026-04-30 22:43 41.92794 -87.80448 7287 ft 240 kts 201°
2026-04-30 22:44 41.89338 -87.81720 9316 ft 273 kts 200°
2026-04-30 22:45 41.81250 -87.84567 13198 ft 338 kts 200°
2026-04-30 22:45 41.76435 -87.83665 15456 ft 383 kts 152°
2026-04-30 22:46 41.72109 -87.79200 17578 ft 400 kts 149°
2026-04-30 22:47 41.61562 -87.76052 20241 ft 397 kts 180°
2026-04-30 22:47 41.55979 -87.75033 21707 ft 407 kts 179°
2026-04-30 22:48 41.50294 -87.73999 23060 ft 417 kts 180°
2026-04-30 22:49 41.41514 -87.72465 25037 ft 424 kts 184°
2026-04-30 22:49 41.32560 -87.72516 26767 ft 433 kts 189°
2026-04-30 22:50 41.20204 -87.72555 29222 ft 445 kts 187°
2026-04-30 22:51 41.13944 -87.71730 30619 ft 447 kts 184°
2026-04-30 22:51 41.07732 -87.70893 31794 ft 445 kts 184°
2026-04-30 22:52 41.04650 -87.70478 32331 ft 442 kts 184°
2026-04-30 22:52 40.98500 -87.69649 33183 ft 441 kts 184°
2026-04-30 22:53 40.92373 -87.68825 33993 ft 440 kts 185°
2026-04-30 22:53 40.86253 -87.68009 34774 ft 439 kts 185°
2026-04-30 22:53 40.83209 -87.67604 35125 ft 439 kts 185°
2026-04-30 22:54 40.77079 -87.66781 35831 ft 439 kts 185°
2026-04-30 22:55 40.67866 -87.65553 36703 ft 440 kts 185°
2026-04-30 22:55 40.61687 -87.64728 37255 ft 441 kts 184°
2026-04-30 22:56 40.55501 -87.63907 37726 ft 442 kts 184°
2026-04-30 22:56 40.46233 -87.62678 38419 ft 443 kts 185°
2026-04-30 22:57 40.40043 -87.61861 38953 ft 442 kts 184°
2026-04-30 22:58 40.27745 -87.58654 39039 ft 478 kts 158°
2026-04-30 22:59 40.09583 -87.46754 39014 ft 490 kts 163°